Regional Weather Roundup
Issued by NWS Albany, NY

Home | Current Version | Previous Version | Graphics & Text | Print | Product List | Glossary Off
Versions: 1 2 3 4 5 6 7 8 9 10 11 12 13 14 15 16 17 18 19 20 21 22 23 24 25 26 27 28 29 30 31 32 33 34 35 36 37 38 39 40 41 42 43 44 45 46 47 48 49 50

000
ASUS41 KALY 281710
RWRALY

NEW YORK STATE HOURLY WEATHER ROUNDUP
NATIONAL WEATHER SERVICE ALBANY NY
1200 PM EST WED JAN 28 2015

NOTE: "FAIR" INDICATES FEW OR NO CLOUDS BELOW 12,000 FEET WITH NO
SIGNIFICANT WEATHER AND/OR NO OBSTRUCTIONS TO VISIBILITY.

NYZ032-033-038>043-046>054-057>066-NYZ062>081-281800-
EAST


CITY           SKY/WX    TMP DP  RH WIND       PRES   REMARKS
ALBANY         MOSUNNY   17   0  47 N13       30.13S WCI   4
GLENS FALLS    SUNNY     15   4  61 E6        30.13S WCI   6
POUGHKEEPSIE   SUNNY     24   3  40 N9        30.06S WCI  14
NEWBURGH       SUNNY     25  10  54 W7        30.04S WCI  17
MONTGOMERY     SUNNY     28   7  41 NW10      30.03S WCI  19
WHITE PLAINS   SUNNY     25   6  44 NW17      30.01S WCI  12
ISLIP          PTSUNNY   23   7  50 NW21      30.01S WCI   8
NEW YORK CITY  MOSUNNY   27   9  46 NW15G21   30.06S WCI  15
CENTRAL PARK   SUNNY     27   6  41 NW13G20   30.07S WCI  16
$$

NYZ005>009-017-018-044>046-055-056-281800-
CENTRAL


CITY           SKY/WX    TMP DP  RH WIND       PRES   REMARKS
FULTON         MIX PCPN  19   4  51 NW10      30.24S WCI   7
SYRACUSE       SUNNY     17   6  62 W8        30.23S WCI   7
ROME           MIX PCPN  14  -3  47 W12       30.22F WCI   0
ELMIRA         SUNNY     24   5  44 NW8G16    30.20F WCI  15
BINGHAMTON     SUNNY     17   1  49 NW18G28   30.09S WCI   1
MONTICELLO     SUNNY     19   7  58 NW20      30.03S WCI   4
$$

NYZ026>034-041>043-281800-
NORTH


CITY           SKY/WX    TMP DP  RH WIND       PRES   REMARKS
WATERTOWN        N/A    N/A N/A N/A MISG      30.26R
FORT DRUM      NOT AVBL
MASSENA        SUNNY     11  -8  42 W9        30.24S WCI  -2
SARANAC LAKE   SUNNY     13  -7  40 VRB3      30.03F
PLATTSBURGH    SUNNY     17  -5  37 N9        30.14F WCI   6
$$

NYZ001>004-010>016-019>021-281800-
WEST


CITY           SKY/WX    TMP DP  RH WIND       PRES   REMARKS
NIAGARA FALLS  MOSUNNY   21  11  65 NW7       30.30F WCI  12
BUFFALO        MOSUNNY   19   9  65 SW9       30.30F WCI   8
DUNKIRK        CLOUDY    17  13  84 SW13      30.33S WCI   4
JAMESTOWN      SUNNY     16   7  67 CALM      30.24R
WELLSVILLE     SUNNY     19   1  45 N3        30.16F
ROCHESTER      SUNNY     23   9  55 NW10      30.28S WCI  12
PENN YAN       SUNNY     21   6  52 NW9       30.22S WCI  11
$$

             KEY
       WCI = WIND CHILL INDEX
       VSB = VISIBILITY
       HX  = HEAT INDEX
$$


USA.gov is the U.S. government's official web portal to all federal, state and local government web resources and services.